This is the latest recevied weather packets stored in our database for station/object K7FRY. If no packets are shown the sender has not sent any weather packets the latest 10 day(s).
| Time | Temp. | Humidity | Pressure | Rain* | Wind** | Luminosity | Snow |
|---|---|---|---|---|---|---|---|
| 1777075740 | 29.44° C | 15% | 1009.4 hPa | 0 mm | - | 259 W/m² | - |
| 1777075440 | 30° C | 15% | 1009.2 hPa | 0 mm | - | 255 W/m² | - |
| 1777075137 | 30° C | 15% | 1009.4 hPa | 0 mm | - | 264 W/m² | - |
| 1777074833 | 30° C | 15% | 1009.2 hPa | 0 mm | - | 313 W/m² | - |
| 1777074528 | 29.44° C | 15% | 1009.4 hPa | 0 mm | - | 311 W/m² | - |
| 1777074224 | 30° C | 15% | 1009.3 hPa | 0 mm | - | 333 W/m² | - |
| 1777073921 | 30° C | 15% | 1009.2 hPa | 0 mm | - | 345 W/m² | - |
| 1777073617 | 30° C | 15% | 1009.4 hPa | 0 mm | - | 346 W/m² | - |
| 1777073312 | 30.56° C | 15% | 1009.4 hPa | 0 mm | - | 377 W/m² | - |
| 1777073008 | 30° C | 14% | 1009.4 hPa | 0 mm | - | 380 W/m² | - |
| 1777072704 | 30° C | 14% | 1009.3 hPa | 0 mm | - | 391 W/m² | - |
| 1777072403 | 30° C | 14% | 1009.3 hPa | 0 mm | - | 418 W/m² | - |
| 1777072097 | 30° C | 14% | 1009.2 hPa | 0 mm | - | 450 W/m² | - |
| 1777071794 | 30° C | 14% | 1009.4 hPa | 0 mm | - | 465 W/m² | - |
| 1777071490 | 30° C | 14% | 1009.4 hPa | 0 mm | - | 471 W/m² | - |
| 1777071190 | 30° C | 14% | 1009.4 hPa | 0 mm | - | 492 W/m² | - |
| 1777070886 | 30° C | 15% | 1009.4 hPa | 0 mm | - | 518 W/m² | - |
| 1777070584 | 29.44° C | 15% | 1009.5 hPa | 0 mm | - | 510 W/m² | - |
| 1777070283 | 30° C | 15% | 1009.7 hPa | 0 mm | - | 553 W/m² | - |
| 1777069977 | 30° C | 15% | 1009.6 hPa | 0 mm | - | 570 W/m² | - |
| 1777069677 | 30° C | 15% | 1009.9 hPa | 0 mm | - | 588 W/m² | - |
| 1777069372 | 29.44° C | 16% | 1009.7 hPa | 0 mm | - | 592 W/m² | - |
| 1777069070 | 30° C | 15% | 1009.8 hPa | 0 mm | - | 607 W/m² | - |
| 1777068765 | 30° C | 15% | 1009.8 hPa | 0 mm | - | 609 W/m² | - |
| 1777068461 | 29.44° C | 15% | 1009.6 hPa | 0 mm | - | 636 W/m² | - |
* Rain latest hour (hover to see other rain measurements)
** Current wind speed in m/s (hover to see current wind gust speed)